Lapeer, MI

6:21 AM EDT on April 19, 2018 (GMT -0400)
Lapeer

Weather History for KD95 - October, 2012

Change the Weather History Date:

Tuesday, October 9, 2012

  Actual Average (KFNT) Record (KFNT)
Temperature  
Mean Temperature 48 °F -  
Max Temperature 61 °F 59 °F 85 °F (1939)
Min Temperature 34 °F 42 °F 25 °F (1989)
Degree Days  
Heating Degree Days 18    
Moisture  
Dew Point 34 °F    
Average Humidity 55    
Maximum Humidity 85    
Minimum Humidity 34    
Precipitation  
Precipitation 0.00 in - - ()
Sea Level Pressure  
Sea Level Pressure 29.97 in    
Wind  
Wind Speed 8 mph ()    
Max Wind Speed 22 mph    
Max Gust Speed 29 mph    
Visibility 10.0 miles    
Events      
Averages and records for this station are not official NWS values.
T = Trace of Precipitation, MM = Missing Value Source: Averaged Metar Reports

Daily Weather History Graph

Daily Weather History Graph

Search for Another Location

Airport or City:

Astronomy

Oct. 09, 2012 Rise Set
Actual Time 7:40 AM EDT 6:59 PM EDT
Civil Twilight 7:11 AM EDT 7:27 PM EDT
Nautical Twilight 6:38 AM EDT 8:00 PM EDT
Astronomical Twilight 6:05 AM EDT 8:33 PM EDT
Moon 1:06 AM EDT (10/9) 3:34 PM EDT (10/9)
Length of Visible Light 12h 16m
Length of Day
11h 19m
Last Quarter, 37% of the Moon is Illuminated
Oct 9
Last Quarter
Oct 15
New
Oct 21
First Quarter
Oct 29
Full
Nov 6
Last Quarter

Hourly Weather History & Observations

Time (EDT) Temp. Windchill Dew Point Humidity Pressure Visibility Wind Dir Wind Speed Gust Speed Precip Events Conditions
12:33 AM 34.3 °F - 30.2 °F 85% 30.10 in 10.0 mi Calm Calm - N/A   Clear
12:54 AM 35.8 °F 33.0 °F 30.2 °F 80% 30.10 in 10.0 mi South 3.5 mph - N/A   Clear
1:13 AM 37.8 °F 35.3 °F 30.9 °F 76% 30.10 in 10.0 mi South 3.5 mph - N/A   Clear
1:33 AM 38.3 °F 34.8 °F 30.9 °F 75% 30.08 in 10.0 mi SSE 4.6 mph - N/A   Clear
1:53 AM 37.8 °F 33.3 °F 30.9 °F 76% 30.08 in 10.0 mi South 5.8 mph - N/A   Clear
2:13 AM 37.8 °F 33.3 °F 31.1 °F 77% 30.08 in 10.0 mi South 5.8 mph - N/A   Clear
2:33 AM 37.9 °F 34.4 °F 31.1 °F 76% 30.09 in 10.0 mi South 4.6 mph - N/A   Clear
2:54 AM 38.3 °F 34.8 °F 31.1 °F 75% 30.08 in 10.0 mi South 4.6 mph - N/A   Clear
3:13 AM 37.9 °F 33.5 °F 31.1 °F 76% 30.08 in 10.0 mi South 5.8 mph - N/A   Clear
4:13 AM 38.5 °F 34.1 °F 31.1 °F 75% 30.06 in 10.0 mi South 5.8 mph - N/A   Clear
4:33 AM 38.3 °F 33.2 °F 30.9 °F 75% 30.06 in 10.0 mi South 6.9 mph - N/A   Clear
4:54 AM 38.5 °F 33.4 °F 30.9 °F 74% 30.06 in 10.0 mi South 6.9 mph - N/A   Clear
5:13 AM 38.3 °F 33.2 °F 31.1 °F 75% 30.06 in 10.0 mi South 6.9 mph - N/A   Clear
5:33 AM 37.9 °F 33.5 °F 31.1 °F 76% 30.06 in 10.0 mi South 5.8 mph - N/A   Clear
5:54 AM 38.3 °F 33.2 °F 31.1 °F 75% 30.06 in 10.0 mi South 6.9 mph - N/A   Clear
6:13 AM 38.5 °F 34.1 °F 31.8 °F 77% 30.06 in 10.0 mi South 5.8 mph - N/A   Clear
6:33 AM 39.9 °F 35.8 °F 32.0 °F 73% 30.06 in 10.0 mi South 5.8 mph - N/A   Clear
6:54 AM 40.6 °F 36.0 °F 32.0 °F 71% 30.06 in 10.0 mi South 6.9 mph - N/A   Clear
7:13 AM 41.0 °F 36.4 °F 32.0 °F 70% 30.06 in 10.0 mi South 6.9 mph - N/A   Clear
7:33 AM 40.8 °F 36.2 °F 32.0 °F 71% 30.06 in 10.0 mi South 6.9 mph - N/A   Clear
7:54 AM 41.9 °F 37.5 °F 32.0 °F 68% 30.05 in 10.0 mi South 6.9 mph - N/A   Mostly Cloudy
8:13 AM 42.1 °F 37.1 °F 32.0 °F 67% 30.05 in 10.0 mi South 8.1 mph - N/A   Mostly Cloudy
8:33 AM 42.6 °F 37.2 °F 32.0 °F 66% 30.05 in 10.0 mi South 9.2 mph - N/A   Scattered Clouds
8:54 AM 45.0 °F 39.7 °F 32.7 °F 62% 30.05 in 10.0 mi South 10.4 mph - N/A   Clear
9:13 AM 44.6 °F 39.2 °F 32.2 °F 62% 30.05 in 10.0 mi South 10.4 mph - N/A   Clear
9:33 AM 47.7 °F - 32.9 °F 57% 30.05 in 10.0 mi South 8.1 mph - N/A   Clear
9:54 AM 50.0 °F - 33.4 °F 53% 30.05 in 10.0 mi South 8.1 mph - N/A   Clear
10:13 AM 51.8 °F - 32.9 °F 49% 30.05 in 10.0 mi South 12.7 mph 24.2 mph N/A   Clear
10:34 AM 52.9 °F - 33.3 °F 47% 30.04 in 10.0 mi South 15.0 mph 20.7 mph N/A   Clear
10:53 AM 54.1 °F - 33.8 °F 46% 30.03 in 10.0 mi South 18.4 mph 21.9 mph N/A   Clear
11:13 AM 55.0 °F - 33.8 °F 45% 30.03 in 10.0 mi South 17.3 mph - N/A   Clear
11:34 AM 56.5 °F - 34.0 °F 43% 30.02 in 10.0 mi SSW 20.7 mph 25.3 mph N/A   Clear
11:53 AM 57.2 °F - 34.7 °F 43% 30.01 in 10.0 mi SSW 13.8 mph 24.2 mph N/A   Clear
12:13 PM 57.7 °F - 34.7 °F 42% 30.00 in 10.0 mi SSW 17.3 mph 23.0 mph N/A   Clear
12:34 PM 58.6 °F - 34.3 °F 40% 30.00 in 10.0 mi SSW 13.8 mph 25.3 mph N/A   Clear
12:53 PM 59.4 °F - 34.7 °F 40% 29.99 in 10.0 mi SSW 21.9 mph 27.6 mph N/A   Clear
1:13 PM 59.9 °F - 34.7 °F 39% 29.98 in 10.0 mi SSW 17.3 mph 28.8 mph N/A   Clear
1:34 PM 60.6 °F - 34.5 °F 38% 29.97 in 10.0 mi SSW 18.4 mph 27.6 mph N/A   Clear
1:53 PM 60.6 °F - 34.3 °F 37% 29.96 in 10.0 mi South 17.3 mph 26.5 mph N/A   Clear
2:13 PM 61.7 °F - 34.5 °F 36% 29.94 in 10.0 mi SSW 19.6 mph 24.2 mph N/A   Clear
2:34 PM 61.5 °F - 33.3 °F 35% 29.94 in 10.0 mi SSW 12.7 mph 24.2 mph N/A   Clear
2:53 PM 61.7 °F - 33.1 °F 34% 29.92 in 10.0 mi South 18.4 mph 27.6 mph N/A   Clear
3:13 PM 61.3 °F - 33.4 °F 35% 29.92 in 10.0 mi SSW 19.6 mph 26.5 mph N/A   Clear
3:34 PM 61.7 °F - 33.6 °F 35% 29.91 in 10.0 mi SSW 19.6 mph 24.2 mph N/A   Clear
3:53 PM 61.7 °F - 34.9 °F 37% 29.91 in 10.0 mi South 11.5 mph 20.7 mph N/A   Clear
4:13 PM 61.7 °F - 33.6 °F 35% 29.90 in 10.0 mi SSW 20.7 mph 27.6 mph N/A   Clear
4:34 PM 61.0 °F - 34.0 °F 36% 29.89 in 10.0 mi South 16.1 mph 26.5 mph N/A   Clear
4:53 PM 61.0 °F - 34.7 °F 37% 29.89 in 10.0 mi South 17.3 mph 24.2 mph N/A   Clear
5:13 PM 59.9 °F - 35.1 °F 39% 29.88 in 10.0 mi South 12.7 mph 19.6 mph N/A   Clear
5:34 PM 59.5 °F - 35.1 °F 40% 29.88 in 10.0 mi South 15.0 mph 23.0 mph N/A   Clear
5:53 PM 59.0 °F - 35.8 °F 42% 29.88 in 10.0 mi SSW 12.7 mph 18.4 mph N/A   Clear
6:13 PM 58.8 °F - 35.8 °F 42% 29.89 in 10.0 mi SSW 6.9 mph 21.9 mph N/A   Clear
6:34 PM 58.5 °F - 35.6 °F 42% 29.87 in 10.0 mi SSW 11.5 mph 19.6 mph N/A   Clear
6:53 PM 57.4 °F - 35.4 °F 44% 29.88 in 10.0 mi SSW 9.2 mph - N/A   Clear
7:13 PM 55.8 °F - 35.6 °F 47% 29.87 in 10.0 mi South 8.1 mph - N/A   Clear
7:34 PM 54.7 °F - 35.8 °F 49% 29.86 in 10.0 mi South 8.1 mph - N/A   Clear
7:53 PM 53.6 °F - 35.6 °F 51% 29.87 in 10.0 mi South 6.9 mph - N/A   Clear
8:13 PM 52.9 °F - 35.6 °F 52% 29.87 in 10.0 mi South 5.8 mph - N/A   Clear
8:34 PM 52.2 °F - 35.6 °F 53% 29.87 in 10.0 mi South 6.9 mph - N/A   Clear
8:53 PM 51.6 °F - 35.6 °F 54% 29.87 in 10.0 mi South 8.1 mph - N/A   Clear
9:14 PM 53.1 °F - 35.4 °F 51% 29.86 in 10.0 mi South 6.9 mph - N/A   Clear
9:33 PM 52.0 °F - 35.8 °F 54% 29.86 in 10.0 mi South 8.1 mph - N/A   Clear
9:53 PM 53.6 °F - 36.5 °F 52% 29.85 in 10.0 mi South 8.1 mph - N/A   Clear
10:13 PM 53.4 °F - 36.9 °F 53% 29.85 in 10.0 mi South 6.9 mph - N/A   Clear
10:33 PM 53.1 °F - 36.9 °F 54% 29.84 in 10.0 mi South 6.9 mph - N/A   Clear
10:53 PM 53.4 °F - 36.9 °F 53% 29.83 in 10.0 mi South 11.5 mph 16.1 mph N/A   Clear
11:14 PM 53.1 °F - 37.0 °F 55% 29.82 in 10.0 mi South 11.5 mph - N/A   Clear
11:33 PM 53.6 °F - 37.0 °F 53% 29.81 in 10.0 mi South 11.5 mph 18.4 mph N/A   Clear
11:53 PM 53.6 °F - 37.2 °F 54% 29.80 in 10.0 mi South 11.5 mph 16.1 mph N/A   Clear